Time,TemperatureF,DewpointF,PressureIn,WindDirection,WindDirectionDegrees,WindSpeedMPH,WindSpeedGustMPH,Humidity,HourlyPrecipIn,Conditions,Clouds,dailyrainin,SoftwareType,DateUTC
2013-04-06 00:00:00,65.7,64.8,29.94,WSW,255,3.0,3.0,97,0.00,,,0.00,Wunderground v.1.15,2013-04-06 04:00:00,
2013-04-06 00:10:00,65.4,64.2,29.94,West,277,3.0,5.0,96,0.00,,,0.00,Wunderground v.1.15,2013-04-06 04:10:00,
2013-04-06 00:20:00,64.5,62.7,29.94,WNW,295,5.0,7.0,94,0.00,,,0.00,Wunderground v.1.15,2013-04-06 04:20:00,
2013-04-06 00:30:00,64.7,62.6,29.94,NW,318,4.0,4.0,93,0.00,,,0.00,Wunderground v.1.15,2013-04-06 04:30:00,
2013-04-06 00:40:00,64.5,61.8,29.95,WNW,284,4.0,8.0,91,0.00,,,0.00,Wunderground v.1.15,2013-04-06 04:40:00,
2013-04-06 00:50:00,64.1,60.8,29.95,NW,317,4.0,4.0,89,0.00,,,0.00,Wunderground v.1.15,2013-04-06 04:50:00,
2013-04-06 01:00:00,63.8,60.2,29.95,WNW,285,5.0,5.0,88,0.00,,,0.00,Wunderground v.1.15,2013-04-06 05:00:00,
2013-04-06 01:10:00,63.7,60.1,29.95,WNW,296,4.0,6.0,88,0.00,,,0.00,Wunderground v.1.15,2013-04-06 05:10:00,
2013-04-06 01:20:00,63.4,59.8,29.95,WNW,297,4.0,6.0,88,0.00,,,0.00,Wunderground v.1.15,2013-04-06 05:20:00,
2013-04-06 01:30:00,63.0,59.4,29.95,WNW,291,4.0,5.0,88,0.00,,,0.00,Wunderground v.1.15,2013-04-06 05:30:00,
2013-04-06 01:40:00,62.8,59.2,29.94,WNW,288,5.0,7.0,88,0.00,,,0.00,Wunderground v.1.15,2013-04-06 05:40:00,
2013-04-06 01:50:00,62.5,59.2,29.94,NW,316,5.0,5.0,89,0.00,,,0.00,Wunderground v.1.15,2013-04-06 05:50:00,
2013-04-06 02:00:00,62.3,59.0,29.94,NW,308,4.0,4.0,89,0.00,,,0.00,Wunderground v.1.15,2013-04-06 06:00:00,
2013-04-06 02:10:00,62.1,59.1,29.94,WNW,290,3.0,3.0,90,0.00,,,0.00,Wunderground v.1.15,2013-04-06 06:10:00,
2013-04-06 02:20:00,61.9,58.9,29.94,WNW,298,3.0,3.0,90,0.00,,,0.00,Wunderground v.1.15,2013-04-06 06:20:00,
2013-04-06 02:30:00,61.8,59.1,29.95,NW,309,4.0,4.0,91,0.00,,,0.00,Wunderground v.1.15,2013-04-06 06:30:00,
2013-04-06 02:40:00,61.9,59.2,29.95,West,273,4.0,6.0,91,0.00,,,0.00,Wunderground v.1.15,2013-04-06 06:40:00,
2013-04-06 02:50:00,62.1,59.7,29.94,NW,304,4.0,6.0,92,0.00,,,0.00,Wunderground v.1.15,2013-04-06 06:50:00,
2013-04-06 03:00:00,62.2,59.8,29.94,WNW,298,4.0,4.0,92,0.00,,,0.00,Wunderground v.1.15,2013-04-06 07:00:00,
2013-04-06 03:10:00,62.1,60.1,29.94,WNW,295,3.0,3.0,93,0.00,,,0.00,Wunderground v.1.15,2013-04-06 07:10:00,
2013-04-06 03:20:00,62.0,60.0,29.94,NW,308,3.0,3.0,93,0.00,,,0.00,Wunderground v.1.15,2013-04-06 07:20:00,
2013-04-06 03:30:00,62.1,60.4,29.95,WNW,298,2.0,3.0,94,0.00,,,0.00,Wunderground v.1.15,2013-04-06 07:30:00,
2013-04-06 03:40:00,62.2,60.8,29.95,WNW,298,2.0,2.0,95,0.00,,,0.00,Wunderground v.1.15,2013-04-06 07:40:00,
2013-04-06 03:50:00,62.5,61.0,29.95,NNW,344,3.0,5.0,95,0.00,,,0.00,Wunderground v.1.15,2013-04-06 07:50:00,
2013-04-06 04:00:00,62.6,60.8,29.95,NW,326,4.0,4.0,94,0.00,,,0.00,Wunderground v.1.15,2013-04-06 08:00:00,
2013-04-06 04:10:00,62.6,60.8,29.94,NNW,330,4.0,4.0,94,0.00,,,0.00,Wunderground v.1.15,2013-04-06 08:10:00,
2013-04-06 04:20:00,62.5,60.4,29.95,NW,311,5.0,5.0,93,0.00,,,0.00,Wunderground v.1.15,2013-04-06 08:20:00,
2013-04-06 04:30:00,62.3,60.2,29.95,NNW,335,6.0,6.0,93,0.00,,,0.00,Wunderground v.1.15,2013-04-06 08:30:00,
2013-04-06 04:40:00,62.2,60.2,29.95,NW,315,6.0,6.0,93,0.00,,,0.00,Wunderground v.1.15,2013-04-06 08:40:00,
2013-04-06 04:50:00,62.0,60.0,29.94,NNW,333,5.0,5.0,93,0.00,,,0.00,Wunderground v.1.15,2013-04-06 08:50:00,
2013-04-06 05:00:00,61.8,59.8,29.94,NW,321,4.0,4.0,93,0.00,,,0.00,Wunderground v.1.15,2013-04-06 09:00:00,
2013-04-06 05:10:00,61.6,59.6,29.95,WNW,292,5.0,5.0,93,0.00,,,0.00,Wunderground v.1.15,2013-04-06 09:10:00,
2013-04-06 05:20:00,61.4,59.4,29.95,North,352,4.0,6.0,93,0.00,,,0.00,Wunderground v.1.15,2013-04-06 09:20:00,
2013-04-06 05:30:00,61.3,59.3,29.96,NNE,32,6.0,6.0,93,0.00,,,0.00,Wunderground v.1.15,2013-04-06 09:30:00,
2013-04-06 05:40:00,61.1,59.1,29.96,NW,314,5.0,5.0,93,0.00,,,0.00,Wunderground v.1.15,2013-04-06 09:40:00,
2013-04-06 05:50:00,60.9,58.9,29.97,NNW,329,4.0,5.0,93,0.00,,,0.00,Wunderground v.1.15,2013-04-06 09:50:00,
2013-04-06 06:00:00,60.7,58.7,29.97,NNW,345,5.0,5.0,93,0.00,,,0.00,Wunderground v.1.15,2013-04-06 10:00:00,
2013-04-06 06:10:00,60.3,58.3,29.97,WNW,301,4.0,6.0,93,0.00,,,0.00,Wunderground v.1.15,2013-04-06 10:10:00,
2013-04-06 06:20:00,60.1,58.1,29.97,NW,321,5.0,6.0,93,0.00,,,0.00,Wunderground v.1.15,2013-04-06 10:20:00,
2013-04-06 06:30:00,59.8,57.8,29.98,NW,326,5.0,5.0,93,0.00,,,0.00,Wunderground v.1.15,2013-04-06 10:30:00,
2013-04-06 06:40:00,59.6,57.6,29.98,NNW,339,4.0,6.0,93,0.00,,,0.00,Wunderground v.1.15,2013-04-06 10:40:00,
2013-04-06 06:50:00,59.3,57.3,29.98,NNW,330,5.0,5.0,93,0.00,,,0.00,Wunderground v.1.15,2013-04-06 10:50:00,
2013-04-06 07:00:00,59.2,57.5,29.98,NW,318,4.0,4.0,94,0.00,,,0.00,Wunderground v.1.15,2013-04-06 11:00:00,
2013-04-06 07:10:00,59.0,57.3,29.99,NW,314,3.0,5.0,94,0.00,,,0.00,Wunderground v.1.15,2013-04-06 11:10:00,
2013-04-06 07:20:00,58.9,57.2,30.00,NW,326,4.0,4.0,94,0.00,,,0.00,Wunderground v.1.15,2013-04-06 11:20:00,
2013-04-06 07:30:00,59.0,57.3,30.01,NW,309,4.0,4.0,94,0.00,,,0.00,Wunderground v.1.15,2013-04-06 11:30:00,
2013-04-06 07:40:00,59.1,57.1,30.01,NNW,335,5.0,8.0,93,0.00,,,0.00,Wunderground v.1.15,2013-04-06 11:40:00,
2013-04-06 07:50:00,59.2,57.2,30.02,NW,306,5.0,5.0,93,0.00,,,0.00,Wunderground v.1.15,2013-04-06 11:50:00,
2013-04-06 08:00:00,59.3,57.3,30.03,WNW,301,6.0,11.0,93,0.00,,,0.00,Wunderground v.1.15,2013-04-06 12:00:00,
2013-04-06 08:10:00,59.4,57.1,30.02,NNW,334,7.0,7.0,92,0.00,,,0.00,Wunderground v.1.15,2013-04-06 12:10:00,
2013-04-06 08:20:00,59.7,57.4,30.03,WNW,301,5.0,5.0,92,0.00,,,0.00,Wunderground v.1.15,2013-04-06 12:20:00,
2013-04-06 08:30:00,60.0,57.4,30.03,NNW,330,7.0,8.0,91,0.00,,,0.00,Wunderground v.1.15,2013-04-06 12:30:00,
2013-04-06 08:40:00,60.5,57.6,30.03,WNW,300,6.0,8.0,90,0.00,,,0.00,Wunderground v.1.15,2013-04-06 12:40:00,
2013-04-06 08:50:00,60.9,57.9,30.03,NNW,333,6.0,6.0,90,0.00,,,0.00,Wunderground v.1.15,2013-04-06 12:50:00,
2013-04-06 09:00:00,61.6,58.3,30.03,North,356,5.0,5.0,89,0.00,,,0.00,Wunderground v.1.15,2013-04-06 13:00:00,
2013-04-06 09:10:00,62.3,59.0,30.03,NNW,338,5.0,5.0,89,0.00,,,0.00,Wunderground v.1.15,2013-04-06 13:10:00,
2013-04-06 09:20:00,62.9,59.0,30.03,NNW,332,6.0,6.0,87,0.00,,,0.00,Wunderground v.1.15,2013-04-06 13:20:00,
2013-04-06 09:30:00,63.5,59.2,30.03,North,1,8.0,11.0,86,0.00,,,0.00,Wunderground v.1.15,2013-04-06 13:30:00,
2013-04-06 09:40:00,64.4,59.8,30.03,North,8,7.0,7.0,85,0.00,,,0.00,Wunderground v.1.15,2013-04-06 13:40:00,
2013-04-06 09:50:00,65.2,59.9,30.04,NW,309,6.0,10.0,83,0.00,,,0.00,Wunderground v.1.15,2013-04-06 13:50:00,
2013-04-06 10:00:00,65.7,60.4,30.04,North,6,7.0,7.0,83,0.00,,,0.00,Wunderground v.1.15,2013-04-06 14:00:00,
2013-04-06 10:10:00,66.6,60.9,30.04,NNW,333,5.0,8.0,82,0.00,,,0.00,Wunderground v.1.15,2013-04-06 14:10:00,
2013-04-06 10:20:00,67.0,61.0,30.04,NNW,340,6.0,6.0,81,0.00,,,0.00,Wunderground v.1.15,2013-04-06 14:20:00,
2013-04-06 10:30:00,67.5,61.1,30.04,WSW,249,6.0,6.0,80,0.00,,,0.00,Wunderground v.1.15,2013-04-06 14:30:00,
2013-04-06 10:40:00,68.1,61.3,30.05,NNW,332,5.0,5.0,79,0.00,,,0.00,Wunderground v.1.15,2013-04-06 14:40:00,
2013-04-06 10:50:00,68.6,61.5,30.05,NW,319,5.0,5.0,78,0.00,,,0.00,Wunderground v.1.15,2013-04-06 14:50:00,
2013-04-06 11:00:00,69.1,61.9,30.05,NW,314,6.0,6.0,78,0.00,,,0.00,Wunderground v.1.15,2013-04-06 15:00:00,
2013-04-06 11:10:00,69.5,62.0,30.05,NNW,347,6.0,8.0,77,0.00,,,0.00,Wunderground v.1.15,2013-04-06 15:10:00,
2013-04-06 11:20:00,70.7,62.8,30.05,NNW,346,6.0,8.0,76,0.00,,,0.00,Wunderground v.1.15,2013-04-06 15:20:00,
2013-04-06 11:30:00,71.3,62.6,30.05,NNW,336,6.0,6.0,74,0.00,,,0.00,Wunderground v.1.15,2013-04-06 15:30:00,
2013-04-06 11:40:00,71.4,62.7,30.05,North,9,7.0,7.0,74,0.00,,,0.00,Wunderground v.1.15,2013-04-06 15:40:00,
2013-04-06 11:50:00,72.2,63.1,30.05,NNE,15,6.0,11.0,73,0.00,,,0.00,Wunderground v.1.15,2013-04-06 15:50:00,
2013-04-06 12:00:00,72.4,63.3,30.05,NW,326,6.0,7.0,73,0.00,,,0.00,Wunderground v.1.15,2013-04-06 16:00:00,
2013-04-06 12:10:00,73.7,63.7,30.05,NE,49,6.0,6.0,71,0.00,,,0.00,Wunderground v.1.15,2013-04-06 16:10:00,
2013-04-06 12:20:00,74.1,64.1,30.05,South,177,7.0,7.0,71,0.00,,,0.00,Wunderground v.1.15,2013-04-06 16:20:00,
2013-04-06 12:30:00,73.8,64.6,30.05,ENE,57,8.0,9.0,73,0.00,,,0.00,Wunderground v.1.15,2013-04-06 16:30:00,
2013-04-06 12:40:00,74.8,64.8,30.05,NNW,340,7.0,7.0,71,0.00,,,0.00,Wunderground v.1.15,2013-04-06 16:40:00,
2013-04-06 12:50:00,74.9,64.9,30.05,NE,46,9.0,10.0,71,0.00,,,0.00,Wunderground v.1.15,2013-04-06 16:50:00,
2013-04-06 13:00:00,75.4,65.3,30.05,NE,41,8.0,8.0,71,0.00,,,0.00,Wunderground v.1.15,2013-04-06 17:00:00,
2013-04-06 13:10:00,74.9,65.3,30.05,East,82,10.0,11.0,72,0.00,,,0.00,Wunderground v.1.15,2013-04-06 17:10:00,
2013-04-06 13:20:00,74.8,65.6,30.04,NE,46,10.0,10.0,73,0.00,,,0.00,Wunderground v.1.15,2013-04-06 17:20:00,
2013-04-06 13:30:00,75.1,65.5,30.04,NNE,32,10.0,10.0,72,0.00,,,0.00,Wunderground v.1.15,2013-04-06 17:30:00,
2013-04-06 13:40:00,74.7,64.7,30.04,NNE,29,10.0,14.0,71,0.00,,,0.00,Wunderground v.1.15,2013-04-06 17:40:00,
2013-04-06 13:50:00,74.8,66.0,30.04,North,6,10.0,10.0,74,0.00,,,0.00,Wunderground v.1.15,2013-04-06 17:50:00,
2013-04-06 14:00:00,74.9,65.7,30.04,NNW,338,10.0,10.0,73,0.00,,,0.00,Wunderground v.1.15,2013-04-06 18:00:00,
2013-04-06 14:10:00,75.0,66.1,30.04,NE,34,10.0,10.0,74,0.00,,,0.00,Wunderground v.1.15,2013-04-06 18:10:00,
2013-04-06 14:20:00,75.7,66.0,30.03,NNW,348,8.0,8.0,72,0.00,,,0.00,Wunderground v.1.15,2013-04-06 18:20:00,
2013-04-06 14:30:00,74.9,65.7,30.04,ESE,107,9.0,9.0,73,0.00,,,0.00,Wunderground v.1.15,2013-04-06 18:30:00,
2013-04-06 14:40:00,74.6,65.8,30.04,ENE,74,7.0,7.0,74,0.00,,,0.00,Wunderground v.1.15,2013-04-06 18:40:00,
2013-04-06 14:50:00,74.7,66.6,30.04,ENE,69,7.0,7.0,76,0.00,,,0.00,Wunderground v.1.15,2013-04-06 18:50:00,
2013-04-06 15:00:00,74.6,66.1,30.03,East,100,5.0,5.0,75,0.00,,,0.00,Wunderground v.1.15,2013-04-06 19:00:00,
2013-04-06 15:10:00,74.6,64.6,30.03,NE,51,7.0,8.0,71,0.00,,,0.00,Wunderground v.1.15,2013-04-06 19:10:00,
2013-04-06 15:20:00,74.9,64.5,30.03,East,90,8.0,8.0,70,0.00,,,0.00,Wunderground v.1.15,2013-04-06 19:20:00,
2013-04-06 15:30:00,75.0,64.5,30.03,NNE,20,8.0,11.0,70,0.00,,,0.00,Wunderground v.1.15,2013-04-06 19:30:00,
2013-04-06 15:40:00,74.9,64.9,30.03,NE,43,9.0,12.0,71,0.00,,,0.00,Wunderground v.1.15,2013-04-06 19:40:00,
2013-04-06 15:50:00,75.2,63.9,30.03,NE,46,9.0,13.0,68,0.00,,,0.00,Wunderground v.1.15,2013-04-06 19:50:00,
2013-04-06 16:00:00,74.8,64.4,30.03,NE,46,9.0,11.0,70,0.00,,,0.00,Wunderground v.1.15,2013-04-06 20:00:00,
2013-04-06 16:10:00,74.1,64.1,30.03,NE,40,10.0,10.0,71,0.00,,,0.00,Wunderground v.1.15,2013-04-06 20:10:00,
2013-04-06 16:20:00,75.0,65.0,30.03,East,89,9.0,10.0,71,0.00,,,0.00,Wunderground v.1.15,2013-04-06 20:20:00,
2013-04-06 16:30:00,75.3,64.4,30.03,NE,49,8.0,11.0,69,0.00,,,0.00,Wunderground v.1.15,2013-04-06 20:30:00,
2013-04-06 16:40:00,74.6,63.3,30.03,NE,43,8.0,9.0,68,0.00,,,0.00,Wunderground v.1.15,2013-04-06 20:40:00,
2013-04-06 16:50:00,75.3,64.0,30.02,NE,44,9.0,11.0,68,0.00,,,0.00,Wunderground v.1.15,2013-04-06 20:50:00,
2013-04-06 17:00:00,75.9,63.3,30.03,NNW,338,9.0,9.0,65,0.00,,,0.00,Wunderground v.1.15,2013-04-06 21:00:00,
2013-04-06 17:10:00,75.8,62.8,30.03,ESE,123,10.0,10.0,64,0.00,,,0.00,Wunderground v.1.15,2013-04-06 21:10:00,
2013-04-06 17:20:00,75.5,62.9,30.03,ENE,57,8.0,15.0,65,0.00,,,0.00,Wunderground v.1.15,2013-04-06 21:20:00,
2013-04-06 17:30:00,76.0,62.9,30.04,NE,54,9.0,9.0,64,0.00,,,0.00,Wunderground v.1.15,2013-04-06 21:30:00,
2013-04-06 17:40:00,75.6,62.1,30.04,ENE,65,8.0,9.0,63,0.00,,,0.00,Wunderground v.1.15,2013-04-06 21:40:00,
2013-04-06 17:50:00,75.0,62.9,30.05,NE,41,9.0,9.0,66,0.00,,,0.00,Wunderground v.1.15,2013-04-06 21:50:00,
2013-04-06 18:00:00,75.1,62.5,30.04,NE,34,8.0,8.0,65,0.00,,,0.00,Wunderground v.1.15,2013-04-06 22:00:00,
2013-04-06 18:10:00,74.6,62.1,30.05,ENE,70,8.0,20.0,65,0.00,,,0.00,Wunderground v.1.15,2013-04-06 22:10:00,
2013-04-06 18:20:00,74.6,61.6,30.05,ENE,77,10.0,10.0,64,0.00,,,0.00,Wunderground v.1.15,2013-04-06 22:20:00,
2013-04-06 18:30:00,74.6,61.2,30.05,ENE,57,9.0,9.0,63,0.00,,,0.00,Wunderground v.1.15,2013-04-06 22:30:00,
2013-04-06 18:40:00,74.3,61.3,30.05,NNE,25,9.0,9.0,64,0.00,,,0.00,Wunderground v.1.15,2013-04-06 22:40:00,
2013-04-06 18:50:00,74.2,61.2,30.05,NE,37,8.0,9.0,64,0.00,,,0.00,Wunderground v.1.15,2013-04-06 22:50:00,
2013-04-06 19:00:00,74.0,61.0,30.05,NE,37,8.0,8.0,64,0.00,,,0.00,Wunderground v.1.15,2013-04-06 23:00:00,
2013-04-06 19:10:00,73.9,61.4,30.05,NE,40,7.0,7.0,65,0.00,,,0.00,Wunderground v.1.15,2013-04-06 23:10:00,
2013-04-06 19:20:00,73.6,61.1,30.06,NE,44,7.0,7.0,65,0.00,,,0.00,Wunderground v.1.15,2013-04-06 23:20:00,
2013-04-06 19:30:00,73.2,61.2,30.06,NNE,20,6.0,10.0,66,0.00,,,0.00,Wunderground v.1.15,2013-04-06 23:30:00,
2013-04-06 19:40:00,73.0,60.5,30.06,NE,51,7.0,7.0,65,0.00,,,0.00,Wunderground v.1.15,2013-04-06 23:40:00,
2013-04-06 19:50:00,72.8,60.8,30.06,ENE,72,6.0,6.0,66,0.00,,,0.00,Wunderground v.1.15,2013-04-06 23:50:00,
2013-04-06 20:00:00,72.7,61.5,30.06,East,79,7.0,7.0,68,0.00,,,0.00,Wunderground v.1.15,2013-04-07 00:00:00,
2013-04-06 20:10:00,72.7,61.5,30.06,ENE,69,6.0,6.0,68,0.00,,,0.00,Wunderground v.1.15,2013-04-07 00:10:00,
2013-04-06 20:20:00,72.6,61.4,30.06,NE,54,6.0,10.0,68,0.00,,,0.00,Wunderground v.1.15,2013-04-07 00:20:00,
2013-04-06 20:30:00,72.7,60.7,30.07,NNE,27,7.0,7.0,66,0.00,,,0.00,Wunderground v.1.15,2013-04-07 00:30:00,
2013-04-06 20:40:00,72.6,60.6,30.07,NE,53,6.0,6.0,66,0.00,,,0.00,Wunderground v.1.15,2013-04-07 00:40:00,
2013-04-06 20:50:00,72.6,61.0,30.07,North,11,7.0,7.0,67,0.00,,,0.00,Wunderground v.1.15,2013-04-07 00:50:00,
2013-04-06 21:00:00,72.5,61.7,30.07,NE,34,6.0,6.0,69,0.00,,,0.00,Wunderground v.1.15,2013-04-07 01:00:00,
2013-04-06 21:10:00,72.5,62.6,30.07,NNE,30,6.0,6.0,71,0.00,,,0.00,Wunderground v.1.15,2013-04-07 01:10:00,
2013-04-06 21:20:00,72.5,62.2,30.08,NE,40,6.0,6.0,70,0.00,,,0.00,Wunderground v.1.15,2013-04-07 01:20:00,
2013-04-06 21:30:00,72.6,62.7,30.08,NE,43,6.0,6.0,71,0.00,,,0.00,Wunderground v.1.15,2013-04-07 01:30:00,
2013-04-06 21:40:00,72.5,63.4,30.08,NE,55,7.0,7.0,73,0.00,,,0.00,Wunderground v.1.15,2013-04-07 01:40:00,
2013-04-06 21:50:00,72.3,63.2,30.08,NE,40,4.0,6.0,73,0.00,,,0.00,Wunderground v.1.15,2013-04-07 01:50:00,
2013-04-06 22:00:00,72.4,63.6,30.08,ENE,62,7.0,7.0,74,0.00,,,0.00,Wunderground v.1.15,2013-04-07 02:00:00,
2013-04-06 22:10:00,72.3,63.5,30.08,East,84,6.0,6.0,74,0.00,,,0.00,Wunderground v.1.15,2013-04-07 02:10:00,
2013-04-06 22:20:00,72.2,63.4,30.09,NE,37,5.0,5.0,74,0.00,,,0.00,Wunderground v.1.15,2013-04-07 02:20:00,
2013-04-06 22:30:00,72.2,62.7,30.09,NE,41,7.0,7.0,72,0.00,,,0.00,Wunderground v.1.15,2013-04-07 02:30:00,
2013-04-06 22:40:00,72.2,62.3,30.09,NE,43,7.0,8.0,71,0.00,,,0.00,Wunderground v.1.15,2013-04-07 02:40:00,
2013-04-06 22:50:00,72.3,62.8,30.09,SE,124,8.0,8.0,72,0.00,,,0.00,Wunderground v.1.15,2013-04-07 02:50:00,
2013-04-06 23:00:00,72.3,63.2,30.09,ENE,61,7.0,12.0,73,0.00,,,0.00,Wunderground v.1.15,2013-04-07 03:00:00,
2013-04-06 23:10:00,72.4,63.6,30.09,East,90,8.0,8.0,74,0.00,,,0.00,Wunderground v.1.15,2013-04-07 03:10:00,
2013-04-06 23:20:00,72.4,63.3,30.10,East,85,7.0,7.0,73,0.00,,,0.00,Wunderground v.1.15,2013-04-07 03:20:00,
2013-04-06 23:40:00,72.2,63.8,30.10,ESE,108,6.0,9.0,75,0.00,,,0.00,Wunderground v.1.15,2013-04-07 03:40:00,
2013-04-06 23:50:00,72.2,63.8,30.10,East,82,7.0,7.0,75,0.00,,,0.00,Wunderground v.1.15,2013-04-07 03:50:00,